This demonstration page uses our WeatherBlox Daily Observations layout. Learn more.

Left ArrowRight Arrow

Hourly Observations for January 10, 2017

Temp ( °F °C ) Dew Point ( °F °C ) Humidity (%) Winds ( mph kmh ) Pressure ( in mb ) Visibility ( mi km ) Precip ( " mm )
12:58 am 00:58 Clear 34 0.9 33 0.8 99 99 SE 9 15 29.52 1000 10 16 0.00 0.00
1:58 am 01:58 Clear 32 0.1 32 -0.1 99 99 E 7 11 29.46 998 10 16 0.00 0.00
2:58 am 02:58 Clear 33 0.6 33 0.6 100 100 ESE 7 11 29.44 997 10 16 0.00 0.00
3:58 am 03:58 Clear 33 0.4 33 0.4 100 100 E 5 7 29.39 995 10 16 0.00 0.00
4:58 am 04:58 Mostly Clear 32 -0.2 32 -0.2 100 100 Calm 29.36 994 10 16 0.00 0.00
5:35 am 05:35 Partly Cloudy with Light Rain 32 0 32 0 100 100 NW 5 7 29.41 996 10 16 0.00 0.00
5:46 am 05:46 Clear 34 1 34 1 100 100 NW 6 9 29.41 996 9 14 0.00 0.00
5:58 am 05:58 Clear 35 1.4 35 1.4 100 100 W 5 7 29.39 995 8 13 0.00 0.00
6:12 am 06:12 Clear with Light Rain 36 2 36 2 100 100 WNW 8 13 29.41 996 6 10 0.00 0.00
6:16 am 06:16 Clear 36 2 36 2 100 100 NW 7 11 29.41 996 7 11 0.00 0.00
6:20 am 06:20 Clear with Rain 34 1 34 1 100 100 WNW 7 11 29.44 997 6 10 0.00 0.00
6:58 am 06:58 Clear with Light Rain 34 1.1 34 1.1 100 100 WNW 5 7 29.39 995 5 8 0.05 1.27
7:26 am 07:26 Cloudy with Mist and Fog 34 1 34 1 100 100 WNW 9 15 29.44 997 5 8 0.00 0.00
7:52 am 07:52 Cloudy with Light Rain 36 2 36 2 100 100 WNW 23 37 29.47 998 10 16 0.00 0.00
7:58 am 07:58 Cloudy with Light Rain 35 1.6 35 1.6 100 100 WNW 21 33 29.46 998 10 16 0.08 2.03
8:03 am 08:03 Cloudy 36 2 36 2 100 100 NW 22 35 29.47 998 10 16 0.00 0.00
8:58 am 08:58 Cloudy 30 -0.9 29 -1.5 96 96 NW 25 41 29.54 1000 10 16 0.01 0.25
9:58 am 09:58 Cloudy 27 -3 23 -5 86 86 WNW 21 33 29.65 1004 10 16 0.00 0.00
10:36 am 10:36 Cloudy 27 -3 21 -6 80 80 NW 24 39 29.74 1007 10 16 0.00 0.00
10:58 am 10:58 Partly Cloudy 27 -2.8 22 -5.7 81 81 NW 22 35 29.69 1005 10 16 0.00 0.00
11:58 am 11:58 Mostly Cloudy 27 -2.7 20 -6.7 74 74 NW 26 43 29.75 1008 10 16 0.00 0.00
12:58 pm 12:58 Sunny 29 -1.9 20 -6.9 69 69 WNW 23 37 29.80 1009 10 16 0.00 0.00
1:58 pm 13:58 Sunny 31 -0.5 19 -7 62 62 WNW 17 28 29.84 1011 10 16 0.00 0.00
2:58 pm 14:58 Sunny 33 0.4 19 -7.3 57 57 W 16 26 29.85 1011 10 16 0.00 0.00
3:58 pm 15:58 Sunny 34 0.9 19 -7.3 55 55 NW 12 19 29.88 1012 10 16 0.00 0.00
4:58 pm 16:58 Sunny 31 -0.7 19 -7.2 62 62 W 6 9 29.90 1013 10 16 0.00 0.00
5:58 pm 17:58 Clear 30 -1 20 -6.4 67 67 SSW 3 6 29.89 1012 10 16 0.00 0.00
6:58 pm 18:58 Clear 29 -1.9 23 -5.2 78 78 WSW 6 9 29.94 1014 10 16 0.00 0.00
7:58 pm 19:58 Cloudy 29 -1.4 24 -4.4 80 80 S 3 6 29.95 1014 10 16 0.00 0.00
8:58 pm 20:58 Cloudy 26 -3.3 26 -3.4 99 99 Calm 29.95 1014 10 16 0.00 0.00
9:58 pm 21:58 Mostly Clear 26 -3.6 25 -3.7 99 99 ESE 10 17 29.92 1013 10 16 0.00 0.00
10:58 pm 22:58 Clear 27 -2.7 26 -3.4 95 95 E 8 13 29.86 1011 10 16 0.00 0.00
11:58 pm 23:58 Clear 29 -1.4 28 -2.5 92 92 ESE 13 20 29.81 1009 10 16 0.00 0.00

Powered by AerisWeather